Flag for United Arab Emirates

Past Weather in Ras al-Khaimah, Ras al-Khaimah, United Arab Emirates — Yesterday and Last 2 Weeks

Now
64 °F

Clear.


Feels Like: 64 °F
Forecast: 93 / 59 °F
Wind: 2 mph from Southwest

Location: Ras Al Khaimah International Airport
Current Time: Oct 26, 2020 at 5:59:50 am
Latest Report: Oct 26, 2020 at 5:00 am
Visibility: 10 mi
Pressure29.92 "Hg
Humidity: 49%
Dew Point: 45 °F
Location of Ras al-KhaimahLocation

Past Weather in Ras al-Khaimah — Graph

°F

Ras al-Khaimah Temperature Yesterday

Maximum temperature yesterday: 95 °F (at 12:00 pm)
Minimum temperature yesterday: 63 °F (at 6:00 am)
Average temperature yesterday: 79 °F

High & Low Weather Summary for the Past Weeks

 TemperatureHumidityPressure
High100 °F (Oct 21, 1:00 pm)82% (Oct 23, 4:00 am)29.98 "Hg (Oct 23, 4:00 am)
Low57 °F (Oct 22, 5:00 am)3% (Oct 21, 1:00 pm)29.74 "Hg (Oct 12, 3:00 pm)
Average80 °F33%29.84 "Hg
* Reported Oct 11 4:00 am — Oct 26 4:00 am, Ras al-Khaimah. Weather by CustomWeather, © 2020

Note: Actual official high and low records may vary slightly from our data, if they occured in-between our weather recording intervals... More about our weather records

Ras al-Khaimah Weather History for the Previous 24 Hours

Scroll right to see more
 ConditionsComfort  
Time TempWeatherWind HumidityBarometerVisibility
4:00 am
Mon, Oct 26
64 °FClear.3 mph52%29.92 "Hg10 mi
3:00 am64 °FClear.3 mph52%29.92 "Hg10 mi
2:00 am66 °FClear.3 mph52%29.92 "Hg10 mi
1:00 am66 °FClear.2 mph60%29.92 "Hg10 mi
12:00 am68 °FClear.5 mph56%29.92 "Hg10 mi
11:00 pm
Sun, Oct 25
68 °FClear.1 mph60%29.95 "Hg10 mi
10:00 pm70 °FClear.5 mph60%29.92 "Hg10 mi
9:00 pm73 °FClear.1 mph53%29.92 "Hg10 mi
8:00 pm79 °FClear.2 mph48%29.92 "Hg10 mi
7:00 pm81 °FClear.5 mph45%29.92 "Hg10 mi
6:00 pm84 °FClear.7 mph40%29.89 "Hg10 mi
5:00 pm90 °FSunny.13 mph29%29.89 "Hg10 mi
4:00 pm91 °FSunny.13 mph20%29.89 "Hg10 mi
3:00 pm93 °FSunny.14 mph17%29.89 "Hg10 mi
2:00 pm93 °FPassing clouds.12 mph21%29.89 "HgN/A
1:00 pm93 °FPassing clouds.10 mph32%29.92 "HgN/A
12:00 pm95 °FSunny.8 mph18%29.95 "Hg10 mi
11:00 am93 °FSunny.8 mph19%29.95 "Hg10 mi
10:00 am91 °FSunny.3 mph24%29.98 "Hg10 mi
9:00 am88 °FSunny.2 mph31%29.98 "Hg10 mi
8:00 am77 °FSunny.5 mph36%29.95 "Hg10 mi
7:00 am68 °FSunny.8 mph35%29.95 "Hg10 mi
6:00 am63 °FClear.3 mph39%29.92 "Hg10 mi
5:00 am64 °FClear.3 mph37%29.92 "Hg10 mi
Weather by CustomWeather, © 2020

See weather overview